sat.trackr.live / text

‹ back to catalog

STARLINK-6264

NORAD 56429 · 2023-061BH

PAYLOAD ACTIVE UNKNOWN

§ Identity

Operator
Country
US
Launch date
2023-05-04
Launch site
AFETR
Launch vehicle
Mass (kg)
RCS (m²)

Purposes: comms

External: N2YO · Heavens-Above · Gunter

§ Orbital elements

Epoch: 2026-09-20T00:00:26.390880Z

Period
94.27 min
Inclination
43.0014°
Eccentricity
0.0001460
Mean motion
15.27572000 rev/d
Perigee alt
482.1 km
Apogee alt
484.1 km
Semi-major
6,861.2 km
B*
3.2606e-5
RAAN
162.4651°
Arg perigee
262.4634°
Mean anomaly
97.6052°
Rev number
18,667

§ Raw data

STARLINK-62641 56429U 23061BH  26263.00030545  .00000635  00000+0  32606-4 0  99982 56429  43.0014 162.4651 0001460 262.4634  97.6052 15.27572000186679

JSON: /api/v1/satellites/56429 · /tle

For live sub-satellite position, see the globe view (requires WebGL).

§ Visibility from observer

Set your observer location to see the next 7 days of passes ≥ 10°. The values pass through the URL so the page stays shareable.

No JS? Fill the form by hand. The geolocation button needs JavaScript.